FW1703 Weather Reports


Display with metric or nautical units.
time (UTC)temp
F
wind
direction
speed
MPH
gust
MPH
rain 1hr
in
rain 24hr
in
rain mn
in
humidity
%
barometer
mb
20260506211541 70 175 3.0 10.0 0.00 0.17 0.17 79 1006.3
20260506210044 71 287 1.0 8.0 0.00 0.17 0.17 82 1006.0
20260506204533 68 185 2.0 6.0 0.00 0.17 0.17 86 1006.1
20260506203029 67 186 3.0 7.0 0.00 0.17 0.17 86 1006.2
20260506201535 67 238 3.0 8.0 0.00 0.17 0.17 86 1006.2
20260506200030 66 209 1.0 5.0 0.00 0.17 0.17 87 1006.3
20260506194525 67 162 1.0 6.0 0.00 0.17 0.17 86 1006.3
20260506193033 67 227 3.0 10.0 0.00 0.17 0.17 85 1006.4
20260506191522 68 259 4.0 12.0 0.00 0.17 0.17 87 1006.4
20260506190021 66 194 3.0 11.0 0.00 0.17 0.17 89 1006.5
20260506184525 66 200 2.0 8.0 0.00 0.17 0.17 90 1006.7
20260506183020 65 166 3.0 10.0 0.00 0.17 0.17 93 1006.9
20260506181534 64 171 3.0 7.0 0.00 0.17 0.17 93 1007.0
20260506180017 63 271 3.0 10.0 0.00 0.17 0.17 92 1007.2
20260506174518 62 203 3.0 14.0 0.00 0.17 0.17 93 1007.2
20260506173023 62 200 2.0 11.0 0.00 0.17 0.17 93 1007.2
20260506171520 62 171 3.0 9.0 0.00 0.17 0.17 93 1007.1
20260506170017 62 166 4.0 8.0 0.01 0.17 0.17 94 1007.2
20260506164516 62 175 4.0 12.0 0.02 0.17 0.17 94 1007.3
20260506163017 63 237 3.0 11.0 0.03 0.17 0.17 93 1007.5
20260506161514 63 165 5.0 13.0 0.05 0.17 0.17 94 1007.3
20260506160013 62 161 3.0 13.0 0.05 0.16 0.16 95 1006.9
20260506154510 62 182 5.0 12.0 0.05 0.15 0.15 94 1007.2
20260506153015 62 187 2.0 12.0 0.05 0.14 0.14 95 1007.9
20260506151513 62 165 3.0 8.0 0.05 0.12 0.12 94 1008.1
20260506150015 63 154 4.0 10.0 0.06 0.11 0.11 93 1008.2
20260506144506 63 199 4.0 11.0 0.06 0.10 0.10 93 1008.2
20260506143016 63 198 3.0 7.0 0.05 0.09 0.09 94 1008.0
20260506141504 62 173 3.0 10.0 0.04 0.07 0.07 93 1007.8
20260506140011 63 209 3.0 8.0 0.03 0.05 0.05 91 1008.0
20260506134601 63 153 3.0 9.0 0.02 0.04 0.04 91 1008.0
20260506133127 63 175 3.0 9.0 0.03 0.04 0.04 90 1008.0
20260506131559 63 179 0.0 8.0 0.02 0.03 0.03 90 1008.2
20260506130123 63 152 2.0 8.0 0.02 0.02 0.02 88 1008.3
20260506124556 63 133 2.0 10.0 0.02 0.02 0.02 87 1008.3
20260506123055 64 180 2.0 11.0 0.01 0.01 0.01 86 1008.4
20260506121551 64 165 3.0 9.0 0.01 0.01 0.01 86 1008.2
20260506120048 64 194 2.0 10.0 0.00 0.00 0.00 83 1008.0
20260506114548 65 153 2.0 9.0 0.00 0.00 0.00 81 1008.1
20260506113049 66 147 3.0 10.0 0.00 0.00 0.00 79 1007.8
20260506111542 66 190 4.0 8.0 0.00 0.00 0.00 78 1007.6
20260506110045 66 176 4.0 15.0 0.00 0.00 0.00 77 1007.6
20260506104607 66 205 3.0 12.0 0.00 0.00 0.00 77 1007.5
20260506103043 66 122 5.0 13.0 0.00 0.00 0.00 76 1007.3
20260506101547 66 165 6.0 13.0 0.00 0.00 0.00 76 1007.0
20260506100043 67 180 4.0 15.0 0.00 0.00 0.00 75 1006.9
20260506094538 67 159 5.0 13.0 0.00 0.00 0.00 75 1007.1
20260506093032 67 128 5.0 14.0 0.00 0.00 0.00 74 1007.2
20260506091533 67 184 4.0 15.0 0.00 0.00 0.00 73 1007.2
20260506090025 67 175 5.0 15.0 0.00 0.00 0.00 72 1007.2
20260506084531 67 171 5.0 11.0 0.00 0.00 0.00 71 1007.4
20260506083037 67 194 5.0 11.0 0.00 0.00 0.00 70 1007.4
20260506081521 68 185 4.0 13.0 0.00 0.00 0.00 69 1007.5
20260506073019 68 150 4.0 11.0 0.00 0.00 0.00 66 1007.6
20260506071512 69 157 4.0 12.0 0.00 0.00 0.00 65 1007.7
20260506061505 69 213 4.0 10.0 0.00 0.00 0.00 62 1008.1
20260506044612 69 208 4.0 13.0 0.00 0.00 0.00 60 1008.7
20260506043057 69 167 5.0 13.0 0.00 0.00 0.00 59 1008.7
20260506041559 70 180 4.0 12.0 0.00 0.00 0.00 58 1008.7
20260506040059 70 203 3.0 8.0 0.00 0.00 0.00 57 1008.8
20260506034559 70 165 4.0 11.0 0.00 0.00 0.00 56 1008.7
20260506033057 70 145 6.0 12.0 0.00 0.00 0.00 56 1008.7
20260506031558 70 117 4.0 8.0 0.00 0.00 0.00 56 1008.7
20260506030056 71 174 4.0 11.0 0.00 0.00 0.00 55 1008.7
20260506024551 71 157 2.0 7.0 0.00 0.00 0.00 55 1008.7
20260506023056 71 174 5.0 11.0 0.00 0.00 0.00 54 1008.7
20260506021558 72 144 2.0 9.0 0.00 0.00 0.00 53 1008.7
20260506020051 72 144 3.0 13.0 0.00 0.00 0.00 52 1008.7
20260506014547 72 161 2.0 8.0 0.00 0.00 0.00 52 1008.6
20260506013047 73 159 4.0 9.0 0.00 0.00 0.00 50 1008.4
20260506011552 74 190 4.0 9.0 0.00 0.00 0.00 48 1008.3
20260506010051 74 175 2.0 11.0 0.00 0.00 0.00 47 1008.0
20260506004547 75 183 3.0 9.0 0.00 0.00 0.00 46 1007.8
20260506003050 75 179 3.0 9.0 0.00 0.00 0.00 45 1007.7
20260506001546 76 148 2.0 10.0 0.00 0.00 0.00 45 1007.6
20260506000044 76 178 4.0 9.0 0.00 0.00 0.00 44 1007.5
20260505234605 77 174 3.0 12.0 0.00 0.00 0.00 45 1007.3
20260505233048 77 136 4.0 8.0 0.00 0.00 0.00 44 1007.2
20260505231544 78 194 5.0 13.0 0.00 0.00 0.00 44 1007.1
20260505230043 79 175 5.0 12.0 0.00 0.00 0.00 43 1007.1
20260505224546 79 192 6.0 13.0 0.00 0.00 0.00 42 1007.1
20260505223049 80 153 6.0 17.0 0.00 0.00 0.00 41 1007.1
20260505221541 80 171 6.0 16.0 0.00 0.00 0.00 41 1007.1
20260505220043 81 143 3.0 14.0 0.00 0.00 0.00 41 1007.0
20260505214552 83 165 3.0 11.0 0.00 0.00 0.00 42 1006.9
20260505213042 82 136 5.0 14.0 0.00 0.00 0.00 42 1006.8